This demonstration page uses our WeatherBlox Daily Observations layout. Learn more.

Left ArrowRight Arrow

Hourly Observations for October 4, 2015

Temp ( °F °C ) Dew Point ( °F °C ) Humidity (%) Winds ( mph kmh ) Pressure ( in mb ) Visibility ( mi km ) Precip ( " mm )
12:15 am 00:15 Cloudy 51 10.6 48 8.8 89 89 E 3 6 30.09 1019 10 16 N/A
12:35 am 00:35 Cloudy 51 10.6 48 8.7 88 88 E 5 7 30.09 1019 10 16 N/A
12:55 am 00:55 Cloudy 51 10.6 46 8 84 84 E 7 11 30.09 1019 10 16 N/A
1:15 am 01:15 Cloudy 51 10.7 46 7.5 81 81 ESE 7 11 30.09 1019 10 16 N/A
1:35 am 01:35 Cloudy 51 10.7 45 7.1 79 79 ESE 8 13 30.09 1019 10 16 N/A
1:55 am 01:55 Cloudy with Rain 51 10.5 45 7.1 80 80 ESE 6 9 30.09 1019 10 16 N/A
2:15 am 02:15 Cloudy 51 10.5 45 7.1 80 80 E 6 9 30.09 1019 10 16 N/A
2:35 am 02:35 Cloudy with Light Rain 51 10.5 44 6.7 78 78 E 7 11 30.09 1019 10 16 N/A
2:55 am 02:55 Cloudy 51 10.5 44 6.6 77 77 E 6 9 30.09 1019 10 16 N/A
3:15 am 03:15 Cloudy with Rain 51 10.3 44 6.6 78 78 ESE 3 6 30.12 1020 7 11 N/A
3:35 am 03:35 Cloudy 50 10 45 7.1 82 82 E 5 7 30.12 1020 10 16 N/A
3:55 am 03:55 Cloudy 50 10 45 7.3 83 83 E 3 6 30.12 1020 10 16 N/A
4:15 am 04:15 Cloudy 50 10 45 7.3 83 83 ESE 3 6 30.15 1021 10 16 N/A
4:35 am 04:35 Cloudy with Rain 49 9.5 45 7.2 86 86 ESE 5 7 30.15 1021 7 11 N/A
4:55 am 04:55 Cloudy 49 9.3 46 7.6 89 89 E 3 6 30.15 1021 10 16 N/A
5:15 am 05:15 Cloudy with Light Rain 49 9.3 46 7.6 89 89 E 6 9 30.15 1021 10 16 N/A
5:35 am 05:35 Cloudy 49 9.3 46 7.5 89 89 E 8 13 30.15 1021 10 16 N/A
5:55 am 05:55 Cloudy 49 9.4 45 7.4 87 87 ESE 6 9 30.15 1021 10 16 N/A
6:15 am 06:15 Cloudy 49 9.5 46 7.5 87 87 E 6 9 30.15 1021 10 16 N/A
6:35 am 06:35 Cloudy 49 9.5 46 7.5 87 87 E 6 9 30.15 1021 10 16 N/A
6:55 am 06:55 Cloudy 49 9.5 46 7.6 88 88 E 9 15 30.15 1021 10 16 N/A
7:15 am 07:15 Cloudy with Light Rain 49 9.3 46 7.5 89 89 E 7 11 30.15 1021 10 16 N/A
7:35 am 07:35 Cloudy with Light Rain 49 9.2 46 7.5 89 89 ESE 7 11 30.15 1021 10 16 N/A
7:55 am 07:55 Cloudy with Rain 49 9.3 46 7.5 89 89 ESE 7 11 30.15 1021 10 16 N/A
8:15 am 08:15 Cloudy with Drizzle 49 9.4 46 7.6 89 89 ESE 7 11 30.18 1022 10 16 N/A
8:35 am 08:35 Cloudy with Drizzle 49 9.5 46 7.6 88 88 ESE 8 13 30.15 1021 10 16 N/A
8:55 am 08:55 Cloudy 49 9.6 46 7.8 89 89 SE 9 15 30.18 1022 10 16 N/A
9:15 am 09:15 Cloudy 49 9.6 46 8 90 90 SE 8 13 30.18 1022 10 16 N/A
9:35 am 09:35 Cloudy 50 10 47 8.1 88 88 ESE 7 11 30.18 1022 10 16 N/A
9:55 am 09:55 Cloudy 51 10.3 47 8.5 89 89 ESE 8 13 30.18 1022 10 16 N/A
10:15 am 10:15 Cloudy 51 10.5 47 8.5 88 88 E 8 13 30.18 1022 10 16 N/A
10:35 am 10:35 Cloudy 51 10.6 47 8.5 87 87 ESE 7 11 30.18 1022 10 16 N/A
10:55 am 10:55 Cloudy 52 11 48 8.8 86 86 ESE 6 9 30.18 1022 10 16 N/A
11:15 am 11:15 Cloudy 52 11.2 48 8.7 85 85 ESE 7 11 30.21 1023 10 16 N/A
11:35 am 11:35 Cloudy 52 11.2 48 8.8 85 85 ESE 7 11 30.21 1023 10 16 N/A
11:55 am 11:55 Cloudy 53 11.7 48 9.1 84 84 ESE 7 11 30.15 1021 10 16 N/A
12:15 pm 12:15 Cloudy 53 11.9 48 8.9 82 82 ESE 7 11 30.15 1021 10 16 N/A
12:35 pm 12:35 Cloudy 54 12.3 48 9 80 80 ESE 6 9 30.15 1021 10 16 N/A
12:55 pm 12:55 Cloudy 55 12.8 48 8.9 77 77 SE 7 11 30.15 1021 10 16 N/A
1:15 pm 13:15 Cloudy 55 13 48 8.7 75 75 SSE 6 9 30.15 1021 10 16 N/A
1:35 pm 13:35 Cloudy 56 13.2 48 8.9 75 75 SE 8 13 30.15 1021 10 16 N/A
1:55 pm 13:55 Cloudy 57 13.8 48 8.8 72 72 SE 6 9 30.12 1020 10 16 N/A
2:15 pm 14:15 Cloudy 58 14.5 49 9.3 71 71 SE 8 13 30.09 1019 10 16 N/A
2:35 pm 14:35 Cloudy 58 14.5 48 8.9 69 69 SSE 8 13 30.09 1019 10 16 N/A
2:55 pm 14:55 Cloudy 58 14.6 48 8.7 68 68 SE 9 15 30.09 1019 10 16 N/A
3:15 pm 15:15 Cloudy 58 14.5 48 9.1 70 70 ESE 7 11 30.06 1018 10 16 N/A
3:35 pm 15:35 Cloudy 59 14.8 48 8.9 68 68 SE 7 11 30.06 1018 10 16 N/A
3:55 pm 15:55 Cloudy 59 15 49 9.2 68 68 ESE 9 15 30.06 1018 10 16 N/A
4:15 pm 16:15 Cloudy 59 15.1 47 8.4 64 64 SE 9 15 30.06 1018 10 16 N/A
4:35 pm 16:35 Cloudy 60 15.4 47 8.4 63 63 SE 9 15 30.06 1018 10 16 N/A
4:55 pm 16:55 Cloudy 60 15.5 47 8.3 62 62 SE 8 13 30.06 1018 10 16 N/A
5:15 pm 17:15 Cloudy 59 15.1 47 8.6 65 65 SE 8 13 30.06 1018 10 16 N/A
5:35 pm 17:35 Cloudy 59 15.2 48 8.8 66 66 SE 8 13 30.06 1018 10 16 N/A
5:55 pm 17:55 Cloudy 59 15.1 48 9 67 67 ESE 7 11 30.06 1018 10 16 N/A
6:15 pm 18:15 Cloudy 59 15.2 48 9.1 67 67 E 6 9 30.06 1018 10 16 N/A
6:35 pm 18:35 Cloudy 59 15.2 48 9.1 67 67 ESE 7 11 30.06 1018 10 16 N/A
6:55 pm 18:55 Cloudy 59 15 48 8.9 67 67 E 7 11 30.06 1018 10 16 N/A
7:15 pm 19:15 Cloudy 59 15 47 8.3 64 64 ESE 9 15 30.06 1018 10 16 N/A
7:35 pm 19:35 Cloudy 59 15.1 46 7.8 62 62 E 8 13 30.06 1018 10 16 N/A
7:55 pm 19:55 Cloudy 59 15 46 8 63 63 ESE 5 7 30.06 1018 10 16 N/A
8:15 pm 20:15 Cloudy 58 14.5 47 8.5 67 67 E 5 7 30.09 1019 10 16 N/A
8:35 pm 20:35 Cloudy 57 14.1 48 8.9 71 71 E 5 7 30.12 1020 10 16 N/A
8:55 pm 20:55 Cloudy 57 13.8 48 9 73 73 E 6 9 30.12 1020 10 16 N/A
9:15 pm 21:15 Cloudy 56 13.5 49 9.4 76 76 E 6 9 30.12 1020 10 16 N/A
9:35 pm 21:35 Cloudy 56 13.3 49 9.3 77 77 E 7 11 30.12 1020 10 16 N/A
9:55 pm 21:55 Cloudy 56 13.3 48 8.7 74 74 E 7 11 30.12 1020 10 16 N/A
10:15 pm 22:15 Cloudy 56 13.3 47 8.5 73 73 E 8 13 30.12 1020 10 16 N/A
10:35 pm 22:35 Cloudy 56 13.2 47 8.2 72 72 E 7 11 30.12 1020 10 16 N/A
10:55 pm 22:55 Cloudy 55 13 47 8.2 73 73 E 7 11 30.12 1020 10 16 N/A
11:15 pm 23:15 Cloudy 55 12.8 47 8.2 74 74 E 7 11 30.12 1020 10 16 N/A
11:35 pm 23:35 Cloudy 54 12.3 47 8.3 77 77 E 6 9 30.12 1020 10 16 N/A
11:55 pm 23:55 Partly Cloudy 54 12.1 47 8.1 77 77 E 6 9 30.12 1020 10 16 N/A

Powered by AerisWeather